Terminal Aerodrome Forecast
Issued by NWS

Home | Current Version | Previous Version | Text Only | Print | Product List | Glossary On
Versions: 1 2 3 4 5 6 7 8 9 10 11 12 13 14 15 16 17 18
000
FTPA31 PHFO 242336
TAFHOG
TAF
PHOG 242336Z 2500/2524 06012KT P6SM SCT015 OVC040
     FM250600 15015G25KT P6SM VCSH SCT015 BKN035
     FM251000 15010KT P6SM SCT015 BKN035
     FM252000 12008KT P6SM SCT015 BKN035
      AMD LTD TO VIS AND WIND 2509/2516=

USA.gov is the U.S. government's official web portal to all federal, state and local government web resources and services.